Home > Time Zones > World Clock > Weather > Egypt > Cairo > Past weeks

Flag for Egypt Weather past 2 weeks in Cairo, Egypt

Now
82 °F

Clear.


Feels Like: 81 °F
Forecast: 73 / 102 °F
Wind: No wind

Location: Cairo Airport

Current Time: May 25, 2015 at 3:54:08 AM

Latest Report: May 25, 2015 at 3:30 AM


Visibility: 10 mi

Pressure: 29.83 "Hg

Humidity: 32%

Dew point: 50 °F

Location of CairoLocation

Historic Weather in Cairo — Graph

°F

Cairo temperature yesterday

Maximum temperature yesterday: 102 °F (at 1:00 PM)
Minimum temperature yesterday: 77 °F (at 3:00 AM)
Average temperature yesterday: 91 °F

Past Weeks' High & Low Weather Summary

 TemperatureHumidityPressure
High102 °F (May 24, 1:00 PM)94% (May 18, 6:00 AM)30.18 "Hg (May 18, 6:00 AM)
Low63 °F (May 15, 5:00 AM)10% (May 24, 11:00 AM)29.71 "Hg (May 11, 2:30 PM)
Average78 °F47%29.92 "Hg
* Reported May 10 2:00 AM — May 25 2:30 AM, Cairo, Weather by CustomWeather, © 2015

Note: Actual official high and low records may vary slightly from our data, if they occured in-between our weather recording intervals... More about our weather records

Advertising

Cairo weather history for previous 24 hours

 ConditionsComfort  
Time TempWeatherWind HumidityBarometerVisibility
2:30 AM
Mon, May 25
84 °FClear.No wind25%29.83 "Hg10 mi
2:00 AM84 °FClear.No wind37%29.86 "Hg10 mi
1:30 AM82 °FClear.No wind45%29.83 "Hg10 mi
1:00 AM82 °FClear.2 mph48%29.86 "Hg10 mi
12:30 AM82 °FClear.3 mph51%29.86 "Hg10 mi
12:00 AM82 °FClear.No wind51%29.89 "Hg10 mi
11:30 PM
Sun, May 24
82 °FClear.2 mph48%29.89 "Hg10 mi
11:00 PM84 °FClear.7 mph48%29.92 "Hg10 mi
10:30 PM86 °FClear.8 mph49%29.92 "Hg10 mi
10:00 PM88 °FClear.No wind40%29.89 "Hg10 mi
9:30 PM90 °FClear.5 mph38%29.89 "Hg10 mi
9:00 PM90 °FClear.5 mph38%29.89 "Hg10 mi
8:30 PM91 °FClear.6 mph36%29.89 "Hg10 mi
8:00 PM91 °FClear.7 mph34%29.89 "Hg10 mi
7:30 PM93 °FClear.No wind34%29.86 "Hg10 mi
7:00 PM99 °FClear.No wind12%29.86 "Hg10 mi
6:30 PM99 °FSunny.No wind12%29.86 "Hg10 mi
6:00 PM100 °FSunny.3 mph12%29.86 "Hg10 mi
5:30 PM100 °FSunny.3 mph11%29.86 "Hg10 mi
5:00 PM100 °FSunny.5 mph11%29.86 "Hg10 mi
4:30 PM100 °FSunny.6 mph11%29.86 "Hg10 mi
4:00 PM100 °FSunny.6 mph11%29.86 "Hg10 mi
3:30 PM100 °FSunny.6 mph11%29.86 "Hg10 mi
3:00 PM100 °FSunny.6 mph11%29.86 "Hg10 mi
2:30 PM100 °FSunny.6 mph11%29.86 "Hg10 mi
2:00 PM100 °FSunny.6 mph11%29.86 "Hg10 mi
1:30 PM102 °FSunny.3 mph10%29.89 "Hg10 mi
1:00 PM102 °FSunny.3 mph10%29.89 "Hg10 mi
12:30 PM100 °FSunny.2 mph10%29.89 "Hg10 mi
12:00 PM100 °FSunny.2 mph10%29.89 "Hg10 mi
11:30 AM100 °FSunny.5 mph10%29.89 "Hg10 mi
11:00 AM99 °FSunny.5 mph10%29.92 "Hg10 mi
10:30 AM99 °FSunny.2 mph12%29.92 "Hg10 mi
10:00 AM97 °FSunny.1 mph13%29.92 "Hg10 mi
9:30 AM95 °FSunny.3 mph13%29.92 "Hg10 mi
9:00 AM95 °FSunny.3 mph13%29.92 "Hg10 mi
8:30 AM95 °FScattered clouds.No wind19%29.92 "HgN/A
8:00 AM90 °FScattered clouds.No wind22%29.92 "HgN/A
7:30 AM88 °FScattered clouds.No wind24%29.92 "HgN/A
7:00 AM84 °FScattered clouds.No wind27%29.92 "HgN/A
6:30 AM81 °FScattered clouds.5 mph28%29.89 "HgN/A
6:00 AM81 °FScattered clouds.5 mph28%29.89 "HgN/A
5:30 AM82 °FScattered clouds.6 mph26%29.89 "HgN/A
5:00 AM81 °FScattered clouds.7 mph30%29.89 "HgN/A
4:30 AM77 °FClear.3 mph34%29.89 "Hg10 mi
4:00 AM81 °FClear.6 mph32%29.89 "Hg10 mi
3:30 AM79 °FClear.8 mph34%29.89 "Hg10 mi
3:00 AM77 °FClear.2 mph34%29.92 "Hg10 mi
Weather by CustomWeather, © 2015

See weather overviewHow to use our weather pages